Main page
Satellite images Climate Cyclones Lightning AirportsFAQ Languages Contact Newsletter About
Weather : Europe Africa North America South America Asia Australia-Oceania Others

phuket-th, Phuket, Phuket International Airport

48565

latitude: , longitude: Thailand, elevation: 08-07N m


METAR: VTSP 181700Z VRB02KT 9000 FEW020 26/23 Q1011 NOSIG